Regional Weather Roundup
Issued by NWS

Home | Current Version | Previous Version | Graphics & Text | Print | Product List | Glossary On
Versions: 1 2 3 4 5 6 7 8 9 10 11 12 13 14 15 16 17 18 19 20 21 22 23 24 25 26 27
000
ASUS45 KSLC 161110
RWRUT

UTAH REGIONAL WEATHER ROUNDUP
NATIONAL WEATHER SERVICE SALT LAKE CITY UT
500 AM MDT WED AUG 16 2017

UTZ001>011-023>025-161200-

NORTHERN UTAH

CITY           SKY/WX    TMP DP  RH WIND       PRES   REMARKS
BRIGHAM CITY   CLEAR     55  47  74 CALM      30.03R
HILL AFB       CLEAR     57  33  39 E18       30.04S
LOGAN          CLEAR     52  47  83 W3        30.04R
OGDEN          CLEAR     58  35  42 S7        30.02R
SALT LAKE CITY CLEAR     60  39  45 SE7       30.01R
TOOELE VALLEY  CLEAR     55  32  41 S8        30.02S
WENDOVER       PTCLDY    65  33  30 W3        30.01R
HEBER CITY     CLEAR     43  37  81 CALM      30.13R
WEST JORDAN    CLEAR     56  32  40 S6        30.05R

$$

UTZ011>015-024>027-161200-

CENTRAL/NORTHEAST UTAH

CITY           SKY/WX    TMP DP  RH WIND       PRES   REMARKS
PROVO AIRPORT  CLEAR     57  46  66 CALM      30.06R
MOAB/CANYONLAN CLEAR     62  42  47 CALM      30.00R
DELTA          CLEAR     55  39  54 CALM      30.04S
PRICE          CLEAR     51  44  77 N7        30.10S
RICHFIELD      CLEAR     52  43  71 S6        30.11S
ROOSEVELT      CLEAR     48  45  87 CALM      30.13S
VERNAL         CLEAR     50  46  86 CALM      30.11S

$$

UTZ013>016-019>022-027-161200-

SOUTHERN UTAH

CITY           SKY/WX    TMP DP  RH WIND       PRES   REMARKS
BRYCE CANYON   CLEAR     41  34  76 W8        30.23R
CEDAR CITY     CLEAR     52  37  56 NE6       30.09R
MILFORD        CLEAR     53  37  54 S7        30.05R
ST GEORGE      SUNNY     70  35  27 CALM      29.94R
HANKSVILLE     CLEAR     59  30  33 CALM      30.04R
KANAB          CLEAR     48  32  53 NE5       30.11R
BLANDING       MOCLDY    52  36  54 N6        30.18S

$$

REGIONAL REPORTS     COLORADO/ARIZONA

CITY           SKY/WX    TMP DP  RH WIND       PRES   REMARKS
CRAIG, CO      CLOUDY    42  39  89 CALM      30.16S
GRAND JUNCTION MOCLDY    61  45  55 CALM      30.05R
RIFLE, CO      CLOUDY    55  44  66 NE3       30.11S
MONTROSE, CO   CLOUDY    58  37  45 SE10      30.13R
CORTEZ, CO     CLEAR     44  35  70 CALM      30.13R
COLORADO CITY    N/A     52  43  71 S3        30.09R
PAGE, AZ       CLEAR     66  28  24 NW3       30.00R
GRAND CANYON   CLEAR     38  28  67 CALM      30.19R
KINGMAN, AZ    CLEAR     67  36  31 SE15      29.95R
FLAGSTAFF, AZ  CLEAR     40  34  79 CALM      30.21R

$$

REGIONAL REPORTS    NEVADA/IDAHO/WYOMING

CITY           SKY/WX    TMP DP  RH WIND       PRES   REMARKS
LAS VEGAS, NV  CLEAR     78  40  25 CALM      29.83R
ELY, NY        PTCLDY    50  35  56 SE8       30.12R
ELKO, NV       CLOUDY    56  34  43 CALM      30.04R
POCATELLO, ID  CLEAR     44  39  82 NE6       30.04S
BURLEY, ID     CLEAR     49  43  80 CALM      30.00R
FORT BRIDGER,    N/A     46  36  66 W9        30.22R
EVANSTON, WY   CLEAR     47  31  53 SE6       30.19S
ROCK SPRINGS,  CLEAR     52  44  74 CALM      30.19R
KEMMERER, WY     N/A     41  37  87 N10       30.21S

$$




USA.gov is the U.S. government's official web portal to all federal, state and local government web resources and services.